Time,TemperatureF,DewpointF,PressureIn,WindDirection,WindDirectionDegrees,WindSpeedMPH,WindSpeedGustMPH,Humidity,HourlyPrecipIn,Conditions,Clouds,dailyrainin,SoftwareType,DateUTC
2013-07-12 00:00:00,56.2,47.3,29.69,SE,146,0.0,0.0,72,0.01,,CLR,0.01,VWS V14.01,2013-07-12 06:00:00,
2013-07-12 00:06:00,56.5,46.8,29.69,SE,130,0.0,0.0,70,0.00,,CLR,0.00,VWS V14.01,2013-07-12 06:06:00,
2013-07-12 00:11:00,56.7,46.3,29.69,SE,130,0.0,0.0,68,0.00,,CLR,0.00,VWS V14.01,2013-07-12 06:11:00,
2013-07-12 00:16:00,57.0,46.6,29.69,SE,130,0.0,0.0,68,0.00,,CLR,0.00,VWS V14.01,2013-07-12 06:16:00,
2013-07-12 00:21:00,57.0,46.2,29.68,SE,130,0.0,0.0,67,0.00,,CLR,0.00,VWS V14.01,2013-07-12 06:21:00,
2013-07-12 00:26:00,57.2,46.4,29.68,SE,130,0.0,0.0,67,0.00,,CLR,0.00,VWS V14.01,2013-07-12 06:26:00,
2013-07-12 00:31:00,57.0,45.8,29.68,SE,130,0.0,0.0,66,0.00,,CLR,0.00,VWS V14.01,2013-07-12 06:31:00,
2013-07-12 00:36:00,57.0,45.0,29.68,SE,130,0.0,1.0,64,0.00,,CLR,0.00,VWS V14.01,2013-07-12 06:36:00,
2013-07-12 00:41:00,56.9,44.5,29.68,ESE,116,0.0,1.0,63,0.00,,CLR,0.00,VWS V14.01,2013-07-12 06:41:00,
2013-07-12 00:46:00,56.9,44.5,29.68,ESE,116,0.0,0.0,63,0.00,,CLR,0.00,VWS V14.01,2013-07-12 06:46:00,
2013-07-12 00:51:00,56.7,44.3,29.68,ESE,116,0.0,0.0,63,0.00,,CLR,0.00,VWS V14.01,2013-07-12 06:51:00,
2013-07-12 00:56:00,56.6,42.0,29.68,NE,51,1.0,2.0,58,0.00,,CLR,0.00,VWS V14.01,2013-07-12 06:56:00,
2013-07-12 01:01:00,56.7,43.4,29.68,ENE,59,0.0,1.0,61,0.00,,CLR,0.00,VWS V14.01,2013-07-12 07:01:00,
2013-07-12 01:06:00,56.7,43.8,29.68,ENE,59,0.0,1.0,62,0.00,,CLR,0.00,VWS V14.01,2013-07-12 07:06:00,
2013-07-12 01:11:00,56.7,43.4,29.68,ENE,59,0.0,0.0,61,0.00,,CLR,0.00,VWS V14.01,2013-07-12 07:11:00,
2013-07-12 01:17:00,56.7,42.5,29.68,NE,49,0.0,0.0,59,0.00,,CLR,0.00,VWS V14.01,2013-07-12 07:17:00,
2013-07-12 01:22:00,56.9,42.7,29.68,NE,49,0.0,2.0,59,0.00,,CLR,0.00,VWS V14.01,2013-07-12 07:22:00,
2013-07-12 01:27:00,57.0,43.3,29.68,NE,49,0.0,0.0,60,0.00,,CLR,0.00,VWS V14.01,2013-07-12 07:27:00,
2013-07-12 01:32:00,57.0,44.1,29.68,NE,49,0.0,0.0,62,0.00,,CLR,0.00,VWS V14.01,2013-07-12 07:32:00,
2013-07-12 01:37:00,57.0,43.7,29.68,NE,49,0.0,2.0,61,0.00,,CLR,0.00,VWS V14.01,2013-07-12 07:37:00,
2013-07-12 01:42:00,57.0,42.8,29.68,NE,49,0.0,1.0,59,0.00,,CLR,0.00,VWS V14.01,2013-07-12 07:42:00,
2013-07-12 01:47:00,57.0,42.4,29.68,NE,49,0.0,1.0,58,0.00,,CLR,0.00,VWS V14.01,2013-07-12 07:47:00,
2013-07-12 01:52:00,57.0,42.8,29.67,NE,49,0.0,0.0,59,0.00,,CLR,0.00,VWS V14.01,2013-07-12 07:52:00,
2013-07-12 01:57:00,57.2,42.1,29.67,NE,49,0.0,0.0,57,0.00,,CLR,0.00,VWS V14.01,2013-07-12 07:57:00,
2013-07-12 02:02:00,57.2,42.6,29.67,NE,49,0.0,0.0,58,0.00,,CLR,0.00,VWS V14.01,2013-07-12 08:02:00,
2013-07-12 02:07:00,57.2,42.1,29.67,NE,46,0.0,0.0,57,0.00,,CLR,0.00,VWS V14.01,2013-07-12 08:07:00,
2013-07-12 02:12:00,57.2,42.1,29.67,NE,46,0.0,0.0,57,0.00,,CLR,0.00,VWS V14.01,2013-07-12 08:12:00,
2013-07-12 02:17:00,57.2,42.6,29.66,ENE,58,0.0,2.0,58,0.00,,CLR,0.00,VWS V14.01,2013-07-12 08:17:00,
2013-07-12 02:22:00,57.3,44.0,29.66,ENE,58,0.0,1.0,61,0.00,,CLR,0.00,VWS V14.01,2013-07-12 08:22:00,
2013-07-12 02:27:00,57.3,42.7,29.66,ENE,58,0.0,1.0,58,0.00,,CLR,0.00,VWS V14.01,2013-07-12 08:27:00,
2013-07-12 02:33:00,57.3,42.2,29.66,NNE,32,0.0,1.0,57,0.00,,CLR,0.00,VWS V14.01,2013-07-12 08:33:00,
2013-07-12 02:38:00,57.3,42.7,29.66,NNE,32,0.0,0.0,58,0.01,,CLR,0.01,VWS V14.01,2013-07-12 08:38:00,
2013-07-12 02:43:00,57.2,42.6,29.66,NNE,32,0.0,0.0,58,0.01,,CLR,0.01,VWS V14.01,2013-07-12 08:43:00,
2013-07-12 02:48:00,56.9,42.3,29.66,NNE,32,0.0,0.0,58,0.01,,CLR,0.01,VWS V14.01,2013-07-12 08:48:00,
2013-07-12 02:53:00,56.7,42.1,29.66,NNE,32,0.0,0.0,58,0.01,,CLR,0.01,VWS V14.01,2013-07-12 08:53:00,
2013-07-12 02:58:00,56.5,42.4,29.66,NNE,32,0.0,0.0,59,0.01,,CLR,0.01,VWS V14.01,2013-07-12 08:58:00,
2013-07-12 03:04:00,56.2,42.1,29.66,NNE,32,0.0,0.0,59,0.01,,CLR,0.01,VWS V14.01,2013-07-12 09:04:00,
2013-07-12 03:09:00,56.0,43.2,29.66,NNE,32,0.0,0.0,62,0.01,,CLR,0.01,VWS V14.01,2013-07-12 09:09:00,
2013-07-12 03:14:00,55.9,43.5,29.66,NNE,32,0.0,0.0,63,0.01,,CLR,0.01,VWS V14.01,2013-07-12 09:14:00,
2013-07-12 03:19:00,55.7,43.3,29.69,NNE,32,0.0,0.0,63,0.01,,CLR,0.01,VWS V14.01,2013-07-12 09:19:00,
2013-07-12 03:24:00,55.3,42.9,29.69,NNE,32,0.0,0.0,63,0.01,,CLR,0.01,VWS V14.01,2013-07-12 09:24:00,
2013-07-12 03:29:00,55.0,43.1,29.69,NNE,32,0.0,0.0,64,0.01,,CLR,0.01,VWS V14.01,2013-07-12 09:29:00,
2013-07-12 03:34:00,54.5,42.6,29.69,NNE,32,0.0,0.0,64,0.01,,CLR,0.01,VWS V14.01,2013-07-12 09:34:00,
2013-07-12 03:39:00,54.2,42.7,29.69,NNE,32,0.0,0.0,65,0.00,,CLR,0.01,VWS V14.01,2013-07-12 09:39:00,
2013-07-12 03:44:00,53.9,42.4,29.69,NNE,32,0.0,0.0,65,0.00,,CLR,0.01,VWS V14.01,2013-07-12 09:44:00,
2013-07-12 03:50:00,53.8,42.3,29.70,NNE,32,0.0,0.0,65,0.00,,CLR,0.01,VWS V14.01,2013-07-12 09:50:00,
2013-07-12 03:55:00,53.6,42.5,29.70,NNE,32,0.0,0.0,66,0.00,,CLR,0.01,VWS V14.01,2013-07-12 09:55:00,
2013-07-12 04:00:00,53.6,42.5,29.70,NNE,32,0.0,0.0,66,0.00,,CLR,0.01,VWS V14.01,2013-07-12 10:00:00,
2013-07-12 04:05:00,53.5,42.4,29.70,NNE,32,0.0,0.0,66,0.00,,CLR,0.01,VWS V14.01,2013-07-12 10:05:00,
2013-07-12 04:10:00,53.5,42.4,29.70,NNE,32,0.0,0.0,66,0.00,,CLR,0.01,VWS V14.01,2013-07-12 10:10:00,
2013-07-12 04:15:00,53.3,42.6,29.70,NNE,32,0.0,0.0,67,0.00,,CLR,0.01,VWS V14.01,2013-07-12 10:15:00,
2013-07-12 04:20:00,53.1,42.8,29.71,NNE,32,0.0,0.0,68,0.00,,CLR,0.01,VWS V14.01,2013-07-12 10:20:00,
2013-07-12 04:25:00,52.8,42.5,29.71,NNE,32,0.0,0.0,68,0.00,,CLR,0.01,VWS V14.01,2013-07-12 10:25:00,
2013-07-12 04:30:00,52.6,42.3,29.71,NNE,32,0.0,0.0,68,0.00,,CLR,0.01,VWS V14.01,2013-07-12 10:30:00,
2013-07-12 04:35:00,52.6,42.0,29.71,NNE,32,0.0,0.0,67,0.00,,CLR,0.01,VWS V14.01,2013-07-12 10:35:00,
2013-07-12 04:40:00,52.8,42.5,29.71,NNE,32,0.0,0.0,68,0.00,,CLR,0.01,VWS V14.01,2013-07-12 10:40:00,
2013-07-12 04:45:00,52.8,42.5,29.71,NNE,32,0.0,0.0,68,0.00,,CLR,0.01,VWS V14.01,2013-07-12 10:45:00,
2013-07-12 04:50:00,52.6,42.3,29.71,NNE,32,0.0,0.0,68,0.00,,CLR,0.01,VWS V14.01,2013-07-12 10:50:00,
2013-07-12 04:55:00,52.6,42.3,29.71,NNE,32,0.0,0.0,68,0.00,,CLR,0.01,VWS V14.01,2013-07-12 10:55:00,
2013-07-12 05:00:00,52.6,42.3,29.71,NNE,32,0.0,0.0,68,0.00,,CLR,0.01,VWS V14.01,2013-07-12 11:00:00,
2013-07-12 05:06:00,52.6,42.0,29.72,NNE,32,0.0,0.0,67,0.00,,CLR,0.01,VWS V14.01,2013-07-12 11:06:00,
2013-07-12 05:11:00,52.8,42.5,29.72,NNE,32,0.0,0.0,68,0.00,,CLR,0.01,VWS V14.01,2013-07-12 11:11:00,
2013-07-12 05:16:00,52.9,42.6,29.72,NNE,32,0.0,0.0,68,0.00,,CLR,0.01,VWS V14.01,2013-07-12 11:16:00,
2013-07-12 05:21:00,53.1,42.5,29.72,NNE,32,0.0,0.0,67,0.00,,CLR,0.01,VWS V14.01,2013-07-12 11:21:00,
2013-07-12 05:26:00,53.1,42.1,29.72,NNE,32,0.0,0.0,66,0.00,,CLR,0.01,VWS V14.01,2013-07-12 11:26:00,
2013-07-12 05:31:00,53.2,42.2,29.72,NNE,32,0.0,0.0,66,0.00,,CLR,0.01,VWS V14.01,2013-07-12 11:31:00,
2013-07-12 05:36:00,53.1,42.1,29.72,NNE,32,0.0,0.0,66,0.00,,CLR,0.01,VWS V14.01,2013-07-12 11:36:00,
2013-07-12 05:41:00,53.1,42.5,29.72,NNE,32,0.0,0.0,67,0.00,,CLR,0.01,VWS V14.01,2013-07-12 11:41:00,
2013-07-12 05:46:00,52.8,41.8,29.72,NNE,32,0.0,0.0,66,0.00,,CLR,0.01,VWS V14.01,2013-07-12 11:46:00,
2013-07-12 05:51:00,52.6,42.0,29.73,NNE,32,0.0,0.0,67,0.00,,CLR,0.01,VWS V14.01,2013-07-12 11:51:00,
2013-07-12 05:56:00,52.5,41.9,29.73,NNE,32,0.0,0.0,67,0.00,,CLR,0.01,VWS V14.01,2013-07-12 11:56:00,
2013-07-12 06:01:00,52.5,41.9,29.73,NNE,32,0.0,0.0,67,0.00,,CLR,0.01,VWS V14.01,2013-07-12 12:01:00,
2013-07-12 06:06:00,52.5,41.9,29.73,NNE,32,0.0,0.0,67,0.00,,CLR,0.01,VWS V14.01,2013-07-12 12:06:00,
2013-07-12 06:11:00,52.5,42.6,29.73,NNE,32,0.0,0.0,69,0.00,,CLR,0.01,VWS V14.01,2013-07-12 12:11:00,
2013-07-12 06:17:00,52.3,42.1,29.73,NNE,32,0.0,0.0,68,0.00,,CLR,0.01,VWS V14.01,2013-07-12 12:17:00,
2013-07-12 06:22:00,52.0,41.8,29.77,NNE,32,0.0,0.0,68,0.00,,CLR,0.01,VWS V14.01,2013-07-12 12:22:00,
2013-07-12 06:27:00,51.9,42.1,29.77,NNE,32,0.0,0.0,69,0.00,,CLR,0.01,VWS V14.01,2013-07-12 12:27:00,
2013-07-12 06:32:00,51.7,42.2,29.77,NNE,32,0.0,0.0,70,0.00,,CLR,0.01,VWS V14.01,2013-07-12 12:32:00,
2013-07-12 06:37:00,51.9,42.4,29.76,NNE,32,0.0,0.0,70,0.00,,CLR,0.01,VWS V14.01,2013-07-12 12:37:00,
2013-07-12 06:42:00,51.9,42.4,29.76,NNE,32,0.0,0.0,70,0.00,,CLR,0.01,VWS V14.01,2013-07-12 12:42:00,
2013-07-12 06:47:00,51.9,42.4,29.76,NNE,32,0.0,0.0,70,0.00,,CLR,0.01,VWS V14.01,2013-07-12 12:47:00,
2013-07-12 06:52:00,52.0,42.5,29.77,NNE,32,0.0,0.0,70,0.00,,CLR,0.01,VWS V14.01,2013-07-12 12:52:00,
2013-07-12 06:57:00,52.3,42.8,29.77,NNE,32,0.0,0.0,70,0.00,,CLR,0.01,VWS V14.01,2013-07-12 12:57:00,
2013-07-12 07:02:00,52.6,43.1,29.77,NNE,32,0.0,0.0,70,0.00,,CLR,0.01,VWS V14.01,2013-07-12 13:02:00,
2013-07-12 07:07:00,52.9,43.0,29.76,NNE,32,0.0,0.0,69,0.00,,CLR,0.01,VWS V14.01,2013-07-12 13:07:00,
2013-07-12 07:12:00,53.2,43.3,29.76,NNE,32,0.0,0.0,69,0.00,,CLR,0.01,VWS V14.01,2013-07-12 13:12:00,
2013-07-12 07:17:00,53.5,43.6,29.78,NNE,32,0.0,0.0,69,0.00,,CLR,0.01,VWS V14.01,2013-07-12 13:17:00,
2013-07-12 07:22:00,53.6,43.7,29.78,NNE,32,0.0,0.0,69,0.00,,CLR,0.01,VWS V14.01,2013-07-12 13:22:00,
2013-07-12 07:27:00,53.8,44.3,29.78,NNE,32,0.0,0.0,70,0.00,,CLR,0.01,VWS V14.01,2013-07-12 13:27:00,
2013-07-12 07:33:00,53.8,44.6,29.78,NNE,32,0.0,0.0,71,0.00,,CLR,0.01,VWS V14.01,2013-07-12 13:33:00,
2013-07-12 07:38:00,53.8,44.3,29.78,NNE,32,0.0,0.0,70,0.00,,CLR,0.01,VWS V14.01,2013-07-12 13:38:00,
2013-07-12 07:43:00,53.8,43.5,29.78,NNE,32,0.0,0.0,68,0.00,,CLR,0.01,VWS V14.01,2013-07-12 13:43:00,
2013-07-12 07:48:00,53.9,44.3,29.78,NNE,32,0.0,0.0,70,0.00,,CLR,0.01,VWS V14.01,2013-07-12 13:48:00,
2013-07-12 07:53:00,54.1,44.2,29.78,NNE,32,0.0,0.0,69,0.00,,CLR,0.01,VWS V14.01,2013-07-12 13:53:00,
2013-07-12 07:58:00,54.1,44.2,29.78,NNE,32,0.0,0.0,69,0.00,,CLR,0.01,VWS V14.01,2013-07-12 13:58:00,
2013-07-12 08:03:00,54.2,43.5,29.78,NNE,32,0.0,0.0,67,0.00,,CLR,0.01,VWS V14.01,2013-07-12 14:03:00,
2013-07-12 08:08:00,54.4,44.1,29.78,NNE,32,0.0,0.0,68,0.00,,CLR,0.01,VWS V14.01,2013-07-12 14:08:00,
2013-07-12 08:13:00,54.8,44.5,29.78,NNE,32,0.0,0.0,68,0.00,,CLR,0.01,VWS V14.01,2013-07-12 14:13:00,
2013-07-12 08:18:00,55.1,44.3,29.78,NNE,32,0.0,0.0,67,0.00,,CLR,0.01,VWS V14.01,2013-07-12 14:18:00,
2013-07-12 08:23:00,55.3,44.5,29.78,NNE,32,0.0,0.0,67,0.00,,CLR,0.01,VWS V14.01,2013-07-12 14:23:00,
2013-07-12 08:28:00,55.6,44.4,29.78,NNE,32,0.0,0.0,66,0.00,,CLR,0.01,VWS V14.01,2013-07-12 14:28:00,
2013-07-12 08:33:00,55.9,44.7,29.77,NNE,32,0.0,0.0,66,0.00,,CLR,0.01,VWS V14.01,2013-07-12 14:33:00,
2013-07-12 08:38:00,56.3,44.7,29.77,NNE,32,0.0,0.0,65,0.00,,CLR,0.01,VWS V14.01,2013-07-12 14:38:00,
2013-07-12 08:44:00,56.7,44.7,29.77,NNE,23,0.0,0.0,64,0.00,,CLR,0.01,VWS V14.01,2013-07-12 14:44:00,
2013-07-12 08:49:00,57.3,44.8,29.77,WNW,290,0.0,0.0,63,0.00,,CLR,0.01,VWS V14.01,2013-07-12 14:49:00,
2013-07-12 08:54:00,58.3,44.5,29.77,WNW,290,0.0,0.0,60,0.00,,CLR,0.01,VWS V14.01,2013-07-12 14:54:00,
2013-07-12 08:59:00,59.0,45.2,29.77,North,5,1.0,1.0,60,0.00,,CLR,0.01,VWS V14.01,2013-07-12 14:59:00,
2013-07-12 09:04:00,59.8,45.5,29.75,North,5,0.0,2.0,59,0.00,,CLR,0.01,VWS V14.01,2013-07-12 15:04:00,
2013-07-12 09:09:00,60.7,46.8,29.75,North,5,0.0,1.0,60,0.00,,CLR,0.01,VWS V14.01,2013-07-12 15:09:00,
2013-07-12 09:14:00,61.5,46.1,29.75,North,5,0.0,0.0,57,0.00,,CLR,0.01,VWS V14.01,2013-07-12 15:14:00,
2013-07-12 09:19:00,62.4,47.9,29.76,North,5,0.0,0.0,59,0.00,,CLR,0.01,VWS V14.01,2013-07-12 15:19:00,
2013-07-12 09:24:00,62.7,46.3,29.76,North,5,0.0,0.0,55,0.00,,CLR,0.01,VWS V14.01,2013-07-12 15:24:00,
2013-07-12 09:29:00,63.2,48.2,29.76,WSW,248,0.0,0.0,58,0.00,,CLR,0.01,VWS V14.01,2013-07-12 15:29:00,
2013-07-12 09:34:00,63.7,47.2,29.74,NNW,332,1.0,2.0,55,0.00,,CLR,0.01,VWS V14.01,2013-07-12 15:34:00,
2013-07-12 09:39:00,64.2,47.7,29.74,West,269,0.0,1.0,55,0.00,,CLR,0.01,VWS V14.01,2013-07-12 15:39:00,
2013-07-12 09:44:00,64.3,47.8,29.74,West,268,0.0,4.0,55,0.00,,CLR,0.01,VWS V14.01,2013-07-12 15:44:00,
2013-07-12 09:49:00,64.5,48.0,29.72,NNE,17,0.0,0.0,55,0.00,,CLR,0.01,VWS V14.01,2013-07-12 15:49:00,
2013-07-12 09:54:00,64.7,47.7,29.72,SW,232,0.0,2.0,54,0.00,,CLR,0.01,VWS V14.01,2013-07-12 15:54:00,
2013-07-12 09:59:00,65.0,49.9,29.72,WSW,248,0.0,3.0,58,0.00,,CLR,0.01,VWS V14.01,2013-07-12 15:59:00,
2013-07-12 10:05:00,65.3,47.8,29.73,North,355,0.0,4.0,53,0.00,,CLR,0.01,VWS V14.01,2013-07-12 16:05:00,
2013-07-12 10:10:00,65.8,47.2,29.73,West,277,0.0,3.0,51,0.00,,CLR,0.01,VWS V14.01,2013-07-12 16:10:00,
2013-07-12 10:15:00,66.3,46.6,29.73,WSW,241,2.0,3.0,49,0.00,,CLR,0.01,VWS V14.01,2013-07-12 16:15:00,
2013-07-12 10:20:00,66.6,47.9,29.74,WSW,244,0.0,3.0,51,0.00,,CLR,0.01,VWS V14.01,2013-07-12 16:20:00,
2013-07-12 10:25:00,67.1,48.4,29.74,West,260,1.0,6.0,51,0.00,,CLR,0.01,VWS V14.01,2013-07-12 16:25:00,
2013-07-12 10:30:00,68.1,47.1,29.74,WSW,248,2.0,4.0,47,0.00,,CLR,0.01,VWS V14.01,2013-07-12 16:30:00,
2013-07-12 10:35:00,68.8,46.6,29.72,West,267,0.0,2.0,45,0.00,,CLR,0.01,VWS V14.01,2013-07-12 16:35:00,
2013-07-12 10:40:00,69.9,47.0,29.72,NW,319,0.0,4.0,44,0.00,,CLR,0.01,VWS V14.01,2013-07-12 16:40:00,
2013-07-12 10:45:00,70.6,47.0,29.72,WSW,239,2.0,2.0,43,0.00,,CLR,0.01,VWS V14.01,2013-07-12 16:45:00,
2013-07-12 10:50:00,71.3,46.4,29.70,West,266,1.0,2.0,41,0.00,,CLR,0.01,VWS V14.01,2013-07-12 16:50:00,
2013-07-12 10:55:00,71.8,46.9,29.70,WSW,239,0.0,3.0,41,0.00,,CLR,0.01,VWS V14.01,2013-07-12 16:55:00,
2013-07-12 11:00:00,72.5,45.5,29.70,NE,34,1.0,9.0,38,0.00,,CLR,0.01,VWS V14.01,2013-07-12 17:00:00,
2013-07-12 11:06:00,73.0,45.2,29.69,WSW,244,4.0,10.0,37,0.00,,CLR,0.01,VWS V14.01,2013-07-12 17:06:00,
2013-07-12 11:11:00,73.2,48.8,29.69,WSW,240,2.0,6.0,42,0.00,,CLR,0.01,VWS V14.01,2013-07-12 17:11:00,
2013-07-12 11:16:00,73.3,49.5,29.69,WSW,245,0.0,6.0,43,0.00,,CLR,0.01,VWS V14.01,2013-07-12 17:16:00,
2013-07-12 11:21:00,73.2,48.8,29.71,SW,232,6.0,8.0,42,0.00,,CLR,0.01,VWS V14.01,2013-07-12 17:21:00,
2013-07-12 11:26:00,73.5,50.9,29.71,NNE,12,0.0,1.0,45,0.00,,CLR,0.01,VWS V14.01,2013-07-12 17:26:00,
2013-07-12 11:31:00,74.7,50.1,29.71,WSW,247,3.0,4.0,42,0.00,,CLR,0.01,VWS V14.01,2013-07-12 17:31:00,
2013-07-12 11:37:00,74.9,51.5,29.70,WSW,239,3.0,6.0,44,0.00,,CLR,0.01,VWS V14.01,2013-07-12 17:37:00,
2013-07-12 11:44:00,74.7,48.1,29.70,SW,236,0.0,3.0,39,0.00,,CLR,0.01,VWS V14.01,2013-07-12 17:44:00,
2013-07-12 11:50:00,74.4,50.5,29.70,WSW,255,1.0,1.0,43,0.00,,CLR,0.01,VWS V14.01,2013-07-12 17:50:00,
2013-07-12 11:56:00,74.4,47.9,29.70,SW,217,2.0,6.0,39,0.00,,CLR,0.01,VWS V14.01,2013-07-12 17:56:00,
2013-07-12 12:01:00,74.4,48.5,29.70,NE,52,0.0,2.0,40,0.00,,CLR,0.01,VWS V14.01,2013-07-12 18:01:00,
2013-07-12 12:07:00,73.7,46.5,29.70,WSW,247,3.0,4.0,38,0.00,,CLR,0.01,VWS V14.01,2013-07-12 18:07:00,
2013-07-12 12:12:00,73.0,46.6,29.70,West,270,2.0,6.0,39,0.00,,CLR,0.01,VWS V14.01,2013-07-12 18:12:00,
2013-07-12 12:17:00,72.7,46.3,29.70,ENE,74,0.0,5.0,39,0.00,,CLR,0.01,VWS V14.01,2013-07-12 18:17:00,
2013-07-12 12:22:00,72.8,46.4,29.69,South,187,0.0,1.0,39,0.00,,CLR,0.01,VWS V14.01,2013-07-12 18:22:00,
2013-07-12 12:27:00,72.8,45.0,29.69,ESE,103,0.0,1.0,37,0.00,,CLR,0.01,VWS V14.01,2013-07-12 18:27:00,
2013-07-12 12:32:00,72.8,45.0,29.69,West,265,0.0,2.0,37,0.00,,CLR,0.01,VWS V14.01,2013-07-12 18:32:00,
2013-07-12 12:38:00,73.3,46.9,29.69,SW,236,0.0,3.0,39,0.00,,CLR,0.01,VWS V14.01,2013-07-12 18:38:00,
2013-07-12 12:44:00,73.9,46.0,29.69,WSW,256,0.0,1.0,37,0.00,,CLR,0.01,VWS V14.01,2013-07-12 18:44:00,
2013-07-12 12:49:00,74.4,47.9,29.68,WSW,241,1.0,3.0,39,0.00,,CLR,0.01,VWS V14.01,2013-07-12 18:49:00,
2013-07-12 12:56:00,74.4,45.0,29.68,WSW,246,4.0,5.0,35,0.00,,CLR,0.01,VWS V14.01,2013-07-12 18:56:00,
2013-07-12 13:01:00,73.7,44.4,29.68,West,264,1.0,4.0,35,0.00,,CLR,0.01,VWS V14.01,2013-07-12 19:01:00,
2013-07-12 13:06:00,73.7,45.8,29.68,SSW,200,1.0,2.0,37,0.00,,CLR,0.01,VWS V14.01,2013-07-12 19:06:00,
2013-07-12 13:12:00,74.9,44.7,29.68,WNW,289,1.0,3.0,34,0.00,,CLR,0.01,VWS V14.01,2013-07-12 19:12:00,
2013-07-12 13:18:00,76.7,47.0,29.66,WSW,257,0.0,7.0,35,0.00,,CLR,0.01,VWS V14.01,2013-07-12 19:18:00,
2013-07-12 13:23:00,77.7,47.9,29.66,North,355,0.0,6.0,35,0.00,,CLR,0.01,VWS V14.01,2013-07-12 19:23:00,
2013-07-12 13:28:00,78.8,45.6,29.66,West,277,2.0,3.0,31,0.00,,CLR,0.01,VWS V14.01,2013-07-12 19:28:00,
2013-07-12 13:33:00,79.4,43.5,29.65,North,360,0.0,3.0,28,0.00,,CLR,0.01,VWS V14.01,2013-07-12 19:33:00,
2013-07-12 13:38:00,79.4,45.3,29.65,NW,317,0.0,3.0,30,0.00,,CLR,0.01,VWS V14.01,2013-07-12 19:38:00,
2013-07-12 13:43:00,79.6,43.7,29.65,West,265,1.0,5.0,28,0.00,,CLR,0.01,VWS V14.01,2013-07-12 19:43:00,
2013-07-12 13:48:00,79.8,43.8,29.64,SSW,205,0.0,2.0,28,0.00,,CLR,0.01,VWS V14.01,2013-07-12 19:48:00,
2013-07-12 13:54:00,79.8,43.8,29.64,West,263,0.0,3.0,28,0.00,,CLR,0.01,VWS V14.01,2013-07-12 19:54:00,
2013-07-12 13:59:00,80.5,45.3,29.64,ENE,59,0.0,1.0,29,0.00,,CLR,0.01,VWS V14.01,2013-07-12 19:59:00,
2013-07-12 14:04:00,81.2,44.1,29.62,ENE,74,1.0,2.0,27,0.00,,CLR,0.01,VWS V14.01,2013-07-12 20:04:00,
2013-07-12 14:10:00,80.7,42.7,29.62,South,187,0.0,2.0,26,0.00,,CLR,0.01,VWS V14.01,2013-07-12 20:10:00,
2013-07-12 14:15:00,80.5,43.5,29.62,NNW,346,0.0,1.0,27,0.00,,CLR,0.01,VWS V14.01,2013-07-12 20:15:00,
2013-07-12 14:21:00,79.8,40.9,29.64,NNE,13,0.0,3.0,25,0.00,,CLR,0.01,VWS V14.01,2013-07-12 20:21:00,
2013-07-12 14:26:00,79.2,43.3,29.64,NW,315,0.0,0.0,28,0.00,,CLR,0.01,VWS V14.01,2013-07-12 20:26:00,
2013-07-12 14:32:00,79.2,45.1,29.64,WSW,246,0.0,3.0,30,0.00,,CLR,0.01,VWS V14.01,2013-07-12 20:32:00,
2013-07-12 14:38:00,78.6,41.9,29.64,WSW,257,1.0,4.0,27,0.00,,CLR,0.01,VWS V14.01,2013-07-12 20:38:00,
2013-07-12 14:43:00,77.9,42.2,29.64,West,279,0.0,4.0,28,0.00,,CLR,0.01,VWS V14.01,2013-07-12 20:43:00,
2013-07-12 14:48:00,77.4,41.8,29.66,WSW,237,4.0,8.0,28,0.00,,CLR,0.01,VWS V14.01,2013-07-12 20:48:00,
2013-07-12 14:54:00,77.0,41.4,29.66,WSW,243,1.0,4.0,28,0.00,,CLR,0.01,VWS V14.01,2013-07-12 20:54:00,
2013-07-12 14:59:00,76.3,40.8,29.66,NNW,334,0.0,0.0,28,0.00,,CLR,0.01,VWS V14.01,2013-07-12 20:59:00,
2013-07-12 15:05:00,76.1,40.7,29.67,South,169,0.0,2.0,28,0.00,,CLR,0.01,VWS V14.01,2013-07-12 21:05:00,
2013-07-12 15:10:00,76.8,42.2,29.67,SW,228,7.0,10.0,29,0.00,,CLR,0.01,VWS V14.01,2013-07-12 21:10:00,
2013-07-12 15:15:00,77.9,40.3,29.67,WSW,252,2.0,7.0,26,0.00,,CLR,0.01,VWS V14.01,2013-07-12 21:15:00,
2013-07-12 15:21:00,78.5,38.7,29.66,North,355,0.0,2.0,24,0.00,,CLR,0.01,VWS V14.01,2013-07-12 21:21:00,
2013-07-12 15:26:00,79.0,41.2,29.66,WNW,287,1.0,6.0,26,0.00,,CLR,0.01,VWS V14.01,2013-07-12 21:26:00,
2013-07-12 15:31:00,79.6,39.7,29.66,West,274,0.0,9.0,24,0.00,,CLR,0.01,VWS V14.01,2013-07-12 21:31:00,
2013-07-12 15:36:00,80.3,40.3,29.64,WSW,245,0.0,4.0,24,0.00,,CLR,0.01,VWS V14.01,2013-07-12 21:36:00,
2013-07-12 15:42:00,80.7,39.5,29.64,West,281,4.0,14.0,23,0.00,,CLR,0.01,VWS V14.01,2013-07-12 21:42:00,
2013-07-12 15:47:00,79.8,38.8,29.64,SW,217,4.0,10.0,23,0.00,,CLR,0.01,VWS V14.01,2013-07-12 21:47:00,
2013-07-12 15:53:00,79.2,39.3,29.64,SW,229,0.0,9.0,24,0.00,,CLR,0.01,VWS V14.01,2013-07-12 21:53:00,
2013-07-12 15:58:00,78.8,40.0,29.64,WSW,238,0.0,7.0,25,0.00,,CLR,0.01,VWS V14.01,2013-07-12 21:58:00,
2013-07-12 16:03:00,78.5,39.8,29.65,SSW,207,1.0,3.0,25,0.00,,CLR,0.01,VWS V14.01,2013-07-12 22:03:00,
2013-07-12 16:08:00,78.3,39.6,29.65,SSW,198,0.0,3.0,25,0.00,,CLR,0.01,VWS V14.01,2013-07-12 22:08:00,
2013-07-12 16:14:00,77.9,41.3,29.65,South,178,0.0,0.0,27,0.00,,CLR,0.01,VWS V14.01,2013-07-12 22:14:00,
2013-07-12 16:19:00,77.7,40.1,29.67,SSW,192,0.0,1.0,26,0.00,,CLR,0.01,VWS V14.01,2013-07-12 22:19:00,
2013-07-12 16:24:00,77.7,38.1,29.67,West,265,1.0,1.0,24,0.00,,CLR,0.01,VWS V14.01,2013-07-12 22:24:00,
2013-07-12 16:30:00,79.0,42.2,29.67,East,101,0.0,1.0,27,0.00,,CLR,0.01,VWS V14.01,2013-07-12 22:30:00,
2013-07-12 16:35:00,79.9,38.8,29.66,SW,235,1.0,7.0,23,0.00,,CLR,0.01,VWS V14.01,2013-07-12 22:35:00,
2013-07-12 16:40:00,80.1,39.0,29.66,SSW,206,2.0,10.0,23,0.00,,CLR,0.01,VWS V14.01,2013-07-12 22:40:00,
2013-07-12 16:45:00,80.1,40.1,29.66,SE,136,2.0,4.0,24,0.00,,CLR,0.01,VWS V14.01,2013-07-12 22:45:00,
2013-07-12 16:50:00,80.3,40.3,29.66,SSW,211,3.0,5.0,24,0.00,,CLR,0.01,VWS V14.01,2013-07-12 22:50:00,
2013-07-12 16:55:00,80.3,39.2,29.66,WNW,292,6.0,7.0,23,0.00,,CLR,0.01,VWS V14.01,2013-07-12 22:55:00,
2013-07-12 17:01:00,79.6,38.6,29.66,WSW,250,2.0,9.0,23,0.00,,CLR,0.01,VWS V14.01,2013-07-12 23:01:00,
2013-07-12 17:06:00,78.3,37.5,29.66,WSW,249,2.0,5.0,23,0.00,,CLR,0.01,VWS V14.01,2013-07-12 23:06:00,
2013-07-12 17:11:00,77.7,38.1,29.66,SSW,192,1.0,4.0,24,0.00,,CLR,0.01,VWS V14.01,2013-07-12 23:11:00,
2013-07-12 17:17:00,77.4,38.9,29.66,South,179,0.0,1.0,25,0.00,,CLR,0.01,VWS V14.01,2013-07-12 23:17:00,
2013-07-12 17:22:00,77.2,39.7,29.66,WSW,251,1.0,4.0,26,0.00,,CLR,0.01,VWS V14.01,2013-07-12 23:22:00,
2013-07-12 17:27:00,77.4,37.8,29.66,North,360,0.0,7.0,24,0.00,,CLR,0.01,VWS V14.01,2013-07-12 23:27:00,
2013-07-12 17:32:00,76.8,41.3,29.66,SSW,196,1.0,15.0,28,0.00,,CLR,0.01,VWS V14.01,2013-07-12 23:32:00,
2013-07-12 17:37:00,76.0,39.6,29.65,South,188,0.0,12.0,27,0.00,,CLR,0.01,VWS V14.01,2013-07-12 23:37:00,
2013-07-12 17:42:00,75.4,41.0,29.65,SSE,164,1.0,4.0,29,0.00,,CLR,0.01,VWS V14.01,2013-07-12 23:42:00,
2013-07-12 17:48:00,75.1,41.6,29.68,South,171,1.0,9.0,30,0.00,,CLR,0.01,VWS V14.01,2013-07-12 23:48:00,
2013-07-12 17:53:00,74.9,42.3,29.68,WNW,301,3.0,5.0,31,0.00,,CLR,0.01,VWS V14.01,2013-07-12 23:53:00,
2013-07-12 17:59:00,75.6,40.2,29.68,East,86,1.0,3.0,28,0.00,,CLR,0.01,VWS V14.01,2013-07-12 23:59:00,
2013-07-12 18:04:00,77.0,37.5,29.66,WSW,240,0.0,6.0,24,0.00,,CLR,0.01,VWS V14.01,2013-07-13 00:04:00,
2013-07-12 18:10:00,78.1,41.4,29.66,East,94,0.0,3.0,27,0.00,,CLR,0.01,VWS V14.01,2013-07-13 00:10:00,
2013-07-12 18:16:00,79.8,37.6,29.66,WSW,254,0.0,5.0,22,0.00,,CLR,0.01,VWS V14.01,2013-07-13 00:16:00,
2013-07-12 18:22:00,79.4,39.5,29.66,East,80,1.0,2.0,24,0.00,,CLR,0.01,VWS V14.01,2013-07-13 00:22:00,
2013-07-12 18:27:00,78.8,40.0,29.66,SSW,213,0.0,3.0,25,0.00,,CLR,0.01,VWS V14.01,2013-07-13 00:27:00,
2013-07-12 18:33:00,77.6,39.0,29.69,SSW,204,0.0,1.0,25,0.00,,CLR,0.01,VWS V14.01,2013-07-13 00:33:00,
2013-07-12 18:39:00,76.8,39.3,29.69,WSW,238,4.0,4.0,26,0.00,,CLR,0.01,VWS V14.01,2013-07-13 00:39:00,
2013-07-12 18:44:00,77.2,39.7,29.69,SW,223,0.0,2.0,26,0.00,,CLR,0.01,VWS V14.01,2013-07-13 00:44:00,
2013-07-12 18:50:00,77.2,39.7,29.69,WSW,254,1.0,2.0,26,0.00,,CLR,0.01,VWS V14.01,2013-07-13 00:50:00,
2013-07-12 18:55:00,76.7,39.3,29.69,WSW,257,0.0,5.0,26,0.00,,CLR,0.01,VWS V14.01,2013-07-13 00:55:00,
2013-07-12 19:00:00,76.3,38.9,29.69,SW,236,1.0,3.0,26,0.00,,CLR,0.01,VWS V14.01,2013-07-13 01:00:00,
2013-07-12 19:05:00,75.8,39.5,29.70,WSW,245,2.0,4.0,27,0.00,,CLR,0.01,VWS V14.01,2013-07-13 01:05:00,
2013-07-12 19:11:00,75.4,39.1,29.70,SW,232,3.0,3.0,27,0.00,,CLR,0.01,VWS V14.01,2013-07-13 01:11:00,
2013-07-12 19:16:00,74.9,38.7,29.70,SSW,213,2.0,4.0,27,0.00,,CLR,0.01,VWS V14.01,2013-07-13 01:16:00,
2013-07-12 19:22:00,74.6,40.3,29.70,SSW,207,0.0,1.0,29,0.00,,CLR,0.01,VWS V14.01,2013-07-13 01:22:00,
2013-07-12 19:28:00,74.2,39.0,29.70,SSW,207,0.0,0.0,28,0.00,,CLR,0.01,VWS V14.01,2013-07-13 01:28:00,
2013-07-12 19:33:00,73.9,38.8,29.70,WSW,246,2.0,4.0,28,0.00,,CLR,0.01,VWS V14.01,2013-07-13 01:33:00,
2013-07-12 19:38:00,73.7,38.6,29.70,WSW,244,0.0,3.0,28,0.00,,CLR,0.01,VWS V14.01,2013-07-13 01:38:00,
2013-07-12 19:43:00,73.7,39.5,29.70,WSW,250,3.0,5.0,29,0.00,,CLR,0.01,VWS V14.01,2013-07-13 01:43:00,
2013-07-12 19:48:00,73.5,39.3,29.71,West,263,1.0,4.0,29,0.00,,CLR,0.01,VWS V14.01,2013-07-13 01:48:00,
2013-07-12 19:53:00,73.3,40.0,29.71,West,260,0.0,1.0,30,0.00,,CLR,0.01,VWS V14.01,2013-07-13 01:53:00,
2013-07-12 19:59:00,73.2,38.2,29.71,North,5,1.0,1.0,28,0.00,,CLR,0.01,VWS V14.01,2013-07-13 01:59:00,
2013-07-12 20:04:00,73.0,38.0,29.72,WSW,247,0.0,0.0,28,0.00,,CLR,0.01,VWS V14.01,2013-07-13 02:04:00,
2013-07-12 20:10:00,72.7,39.5,29.72,NW,311,0.0,0.0,30,0.00,,CLR,0.01,VWS V14.01,2013-07-13 02:10:00,
2013-07-12 20:17:00,72.1,38.1,29.72,West,262,1.0,5.0,29,0.00,,CLR,0.01,VWS V14.01,2013-07-13 02:17:00,
2013-07-12 20:22:00,72.0,39.7,29.69,SW,214,0.0,2.0,31,0.00,,CLR,0.01,VWS V14.01,2013-07-13 02:22:00,
2013-07-12 20:28:00,71.6,40.2,29.69,WSW,252,0.0,6.0,32,0.00,,CLR,0.01,VWS V14.01,2013-07-13 02:28:00,
2013-07-12 20:33:00,71.1,40.6,29.71,SW,216,2.0,2.0,33,0.00,,CLR,0.01,VWS V14.01,2013-07-13 02:33:00,
2013-07-12 20:38:00,70.8,41.1,29.71,SSW,207,0.0,2.0,34,0.00,,CLR,0.01,VWS V14.01,2013-07-13 02:38:00,
2013-07-12 20:43:00,70.3,42.1,29.71,SSW,207,0.0,0.0,36,0.00,,CLR,0.01,VWS V14.01,2013-07-13 02:43:00,
2013-07-12 20:48:00,69.8,41.7,29.71,SSW,207,0.0,0.0,36,0.00,,CLR,0.01,VWS V14.01,2013-07-13 02:48:00,
2013-07-12 20:54:00,69.3,42.6,29.71,SSW,207,0.0,0.0,38,0.00,,CLR,0.01,VWS V14.01,2013-07-13 02:54:00,
2013-07-12 20:59:00,68.6,43.3,29.71,SSW,210,1.0,1.0,40,0.00,,CLR,0.01,VWS V14.01,2013-07-13 02:59:00,
2013-07-12 21:04:00,67.9,41.4,29.74,SW,222,0.0,2.0,38,0.00,,CLR,0.01,VWS V14.01,2013-07-13 03:04:00,
2013-07-12 21:09:00,67.6,41.8,29.74,SW,222,0.0,0.0,39,0.00,,CLR,0.01,VWS V14.01,2013-07-13 03:09:00,
2013-07-12 21:14:00,67.3,42.2,29.74,SSW,212,0.0,0.0,40,0.00,,CLR,0.01,VWS V14.01,2013-07-13 03:14:00,
2013-07-12 21:21:00,66.9,41.8,29.72,SW,231,0.0,0.0,40,0.00,,CLR,0.01,VWS V14.01,2013-07-13 03:21:00,
2013-07-12 21:26:00,66.6,42.8,29.72,SW,231,0.0,0.0,42,0.00,,CLR,0.01,VWS V14.01,2013-07-13 03:26:00,
2013-07-12 21:31:00,66.3,42.5,29.72,SW,231,0.0,0.0,42,0.00,,CLR,0.01,VWS V14.01,2013-07-13 03:31:00,
2013-07-12 21:36:00,65.5,42.4,29.73,SW,231,0.0,0.0,43,0.00,,CLR,0.01,VWS V14.01,2013-07-13 03:36:00,
2013-07-12 21:41:00,64.8,43.0,29.73,SW,231,0.0,0.0,45,0.00,,CLR,0.01,VWS V14.01,2013-07-13 03:41:00,
2013-07-12 21:46:00,64.2,42.4,29.73,SW,231,0.0,0.0,45,0.00,,CLR,0.01,VWS V14.01,2013-07-13 03:46:00,
2013-07-12 21:52:00,63.7,43.1,29.74,SW,231,0.0,0.0,47,0.00,,CLR,0.01,VWS V14.01,2013-07-13 03:52:00,
2013-07-12 21:57:00,63.1,42.6,29.74,SW,231,0.0,0.0,47,0.00,,CLR,0.01,VWS V14.01,2013-07-13 03:57:00,
2013-07-12 22:01:00,62.6,42.1,29.74,SW,231,0.0,0.0,47,0.00,,CLR,0.01,VWS V14.01,2013-07-13 04:01:00,
2013-07-12 22:02:00,62.4,42.5,29.74,SW,231,0.0,0.0,48,0.00,,CLR,0.01,VWS V14.01,2013-07-13 04:02:00,
2013-07-12 22:03:00,62.1,42.2,29.76,SW,231,0.0,0.0,48,0.00,,CLR,0.01,VWS V14.01,2013-07-13 04:03:00,
2013-07-12 22:08:00,61.6,42.3,29.76,SW,231,0.0,0.0,49,0.00,,CLR,0.01,VWS V14.01,2013-07-13 04:08:00,
2013-07-12 22:10:00,61.3,42.0,29.76,SW,231,0.0,0.0,49,0.00,,CLR,0.01,VWS V14.01,2013-07-13 04:10:00,
2013-07-12 22:15:00,60.9,42.7,29.76,SW,231,0.0,0.0,51,0.00,,CLR,0.01,VWS V14.01,2013-07-13 04:15:00,
2013-07-12 22:20:00,60.4,42.2,29.73,SW,231,0.0,0.0,51,0.00,,CLR,0.01,VWS V14.01,2013-07-13 04:20:00,
2013-07-12 22:25:00,60.2,42.5,29.73,SW,231,0.0,0.0,52,0.00,,CLR,0.01,VWS V14.01,2013-07-13 04:25:00,
2013-07-12 22:31:00,60.2,42.5,29.73,SW,231,0.0,0.0,52,0.00,,CLR,0.01,VWS V14.01,2013-07-13 04:31:00,
2013-07-12 22:36:00,60.2,42.5,29.73,SW,231,0.0,0.0,52,0.00,,CLR,0.01,VWS V14.01,2013-07-13 04:36:00,
2013-07-12 22:41:00,60.2,42.0,29.73,SW,231,0.0,0.0,51,0.00,,CLR,0.01,VWS V14.01,2013-07-13 04:41:00,
2013-07-12 22:46:00,60.1,41.9,29.73,SW,231,0.0,0.0,51,0.00,,CLR,0.01,VWS V14.01,2013-07-13 04:46:00,
2013-07-12 22:51:00,59.8,42.2,29.73,SW,231,0.0,0.0,52,0.00,,CLR,0.01,VWS V14.01,2013-07-13 04:51:00,
2013-07-12 22:56:00,59.6,42.5,29.73,SW,223,0.0,0.0,53,0.00,,CLR,0.01,VWS V14.01,2013-07-13 04:56:00,
2013-07-12 23:01:00,59.3,42.2,29.73,SW,223,0.0,0.0,53,0.00,,CLR,0.01,VWS V14.01,2013-07-13 05:01:00,
2013-07-12 23:06:00,59.0,41.9,29.74,SW,223,0.0,0.0,53,0.00,,CLR,0.01,VWS V14.01,2013-07-13 05:06:00,
2013-07-12 23:11:00,58.9,41.8,29.74,SW,223,0.0,0.0,53,0.00,,CLR,0.01,VWS V14.01,2013-07-13 05:11:00,
2013-07-12 23:16:00,58.7,41.6,29.74,SW,223,0.0,0.0,53,0.00,,CLR,0.01,VWS V14.01,2013-07-13 05:16:00,
2013-07-12 23:22:00,58.4,41.8,29.74,SW,223,0.0,0.0,54,0.00,,CLR,0.01,VWS V14.01,2013-07-13 05:22:00,
2013-07-12 23:27:00,58.3,41.8,29.74,SW,223,0.0,0.0,54,0.00,,CLR,0.01,VWS V14.01,2013-07-13 05:27:00,
2013-07-12 23:32:00,58.1,42.0,29.74,SW,223,0.0,0.0,55,0.00,,CLR,0.01,VWS V14.01,2013-07-13 05:32:00,
2013-07-12 23:37:00,58.0,41.9,29.74,SW,223,0.0,0.0,55,0.00,,CLR,0.01,VWS V14.01,2013-07-13 05:37:00,
2013-07-12 23:42:00,58.0,41.9,29.74,SW,223,0.0,1.0,55,0.00,,CLR,0.01,VWS V14.01,2013-07-13 05:42:00,
2013-07-12 23:47:00,57.8,41.8,29.74,SW,223,0.0,0.0,55,0.00,,CLR,0.01,VWS V14.01,2013-07-13 05:47:00,
2013-07-12 23:52:00,57.6,41.6,29.74,SW,223,0.0,0.0,55,0.00,,CLR,0.01,VWS V14.01,2013-07-13 05:52:00,
2013-07-12 23:57:00,57.5,41.9,29.74,SW,223,0.0,0.0,56,0.00,,CLR,0.01,VWS V14.01,2013-07-13 05:57:00,